TRA25X GMTT-EHRD

Flight info

Callsign TRA25X
Flight time N/A
Altitude 34000
Route NOLRO DCT KORIS L27 VJF N10 SVL N857 HIJ Z230 TLD DCT SIE DCT EDIGO DCT DGO L176 LUSEM DCT LULUT DCT ADABI DCT BOKNO UN858 VANAD UN874 BAMES UT191 PODEM DCT ADUTO N873 FERDI Y18 DENUT
Aircraft B738/M-SDE2E3FGHIJ1P2RWXY/LB1

Departure

Time 2026-04-27 08:00
Airport Tangier Ibn Battuta Airport (GMTT)

Arrival

Time N/A
Airport Rotterdam The Hague Airport (EHRD)
Time Latitude Longitude Altitude Speed Heading
2026-04-27 07:33 35.72513 -5.91375 53 ft 0 kts 356°
2026-04-27 07:48 35.72509 -5.91375 51 ft 3 kts 355°
2026-04-27 07:49 35.72483 -5.91371 50 ft 4 kts 347°
2026-04-27 07:49 35.72457 -5.91361 57 ft 4 kts 330°
2026-04-27 07:49 35.72440 -5.91341 59 ft 4 kts 282°
2026-04-27 07:49 35.72438 -5.91333 59 ft 1 kts 265°
2026-04-27 07:55 35.72438 -5.91335 59 ft 3 kts 265°
2026-04-27 07:56 35.72432 -5.91431 54 ft 17 kts 265°
2026-04-27 07:56 35.72432 -5.91600 59 ft 25 kts 288°
2026-04-27 07:56 35.72578 -5.91693 57 ft 27 kts 353°
2026-04-27 07:56 35.72753 -5.91708 55 ft 23 kts 356°
2026-04-27 07:57 35.72920 -5.91741 55 ft 25 kts 322°
2026-04-27 07:57 35.72967 -5.91940 56 ft 23 kts 277°
2026-04-27 07:57 35.72988 -5.92194 53 ft 33 kts 274°
2026-04-27 07:57 35.73014 -5.92468 58 ft 34 kts 278°
2026-04-27 07:58 35.73040 -5.92725 55 ft 30 kts 276°
2026-04-27 07:58 35.73065 -5.92991 57 ft 26 kts 276°
2026-04-27 07:58 35.73086 -5.93223 59 ft 26 kts 276°
2026-04-27 07:58 35.73108 -5.93457 59 ft 24 kts 276°
2026-04-27 07:59 35.73129 -5.93677 54 ft 25 kts 276°
2026-04-27 07:59 35.73257 -5.94051 53 ft 26 kts 11°
2026-04-27 07:59 35.73333 -5.93920 55 ft 0 kts 92°
2026-04-27 08:00 35.73309 -5.93654 59 ft 77 kts 97°
2026-04-27 08:00 35.73220 -5.92643 72 ft 157 kts 97°
2026-04-27 08:00 35.73076 -5.91231 875 ft 175 kts 95°
2026-04-27 08:00 35.72921 -5.89765 2135 ft 166 kts 95°
2026-04-27 08:01 35.72809 -5.88427 3409 ft 152 kts 95°
2026-04-27 08:01 35.72704 -5.87125 4189 ft 158 kts 97°
2026-04-27 08:01 35.72565 -5.85708 4732 ft 175 kts 97°
2026-04-27 08:01 35.72423 -5.84176 5292 ft 186 kts 97°
2026-04-27 08:02 35.72334 -5.82569 5803 ft 197 kts 85°
2026-04-27 08:02 35.73013 -5.80972 5989 ft 236 kts 45°
2026-04-27 08:02 35.74621 -5.80076 6301 ft 273 kts 14°
2026-04-27 08:02 35.76580 -5.80074 6977 ft 291 kts 353°
2026-04-27 08:03 35.78462 -5.81061 7803 ft 302 kts 324°
2026-04-27 08:03 35.79771 -5.83025 8695 ft 304 kts 297°
2026-04-27 08:03 35.80689 -5.85415 9557 ft 306 kts 293°
2026-04-27 08:03 35.81555 -5.87817 10383 ft 309 kts 293°
2026-04-27 08:04 35.82448 -5.90232 11080 ft 316 kts 294°
2026-04-27 08:04 35.83388 -5.92679 11899 ft 317 kts 294°
2026-04-27 08:04 35.84354 -5.95127 12737 ft 317 kts 294°
2026-04-27 08:04 35.85331 -5.97559 13614 ft 317 kts 295°
2026-04-27 08:05 35.86321 -6.00006 14299 ft 322 kts 295°
2026-04-27 08:05 35.87336 -6.02497 14981 ft 327 kts 295°
2026-04-27 08:05 35.88363 -6.05016 15694 ft 330 kts 295°
2026-04-27 08:05 35.89400 -6.07562 16376 ft 334 kts 295°
2026-04-27 08:06 35.90448 -6.10136 17018 ft 338 kts 295°
2026-04-27 08:06 35.91747 -6.12573 17617 ft 345 kts 314°
2026-04-27 08:06 35.93750 -6.14221 18244 ft 351 kts 338°
2026-04-27 08:06 35.96149 -6.14782 18872 ft 356 kts
2026-04-27 08:07 35.98572 -6.14156 19474 ft 360 kts 23°
2026-04-27 08:07 36.00823 -6.12784 20083 ft 363 kts 27°
2026-04-27 08:07 36.03061 -6.11297 20615 ft 368 kts 28°
2026-04-27 08:07 36.05322 -6.09772 21153 ft 372 kts 28°
2026-04-27 08:08 36.07603 -6.08247 21738 ft 374 kts 28°
2026-04-27 08:08 36.09907 -6.06725 22299 ft 377 kts 27°
2026-04-27 08:08 36.12234 -6.05201 22826 ft 380 kts 27°
2026-04-27 08:08 36.14581 -6.03671 23338 ft 383 kts 27°
2026-04-27 08:09 36.16951 -6.02129 23809 ft 387 kts 27°
2026-04-27 08:09 36.19341 -6.00573 24294 ft 390 kts 27°
2026-04-27 08:09 36.21746 -5.99008 24799 ft 392 kts 26°
2026-04-27 08:09 36.24259 -5.97687 25256 ft 394 kts 17°
2026-04-27 08:10 36.26934 -5.96928 25712 ft 396 kts
2026-04-27 08:10 36.29670 -5.96433 26138 ft 399 kts
2026-04-27 08:10 36.32432 -5.95976 26562 ft 402 kts
2026-04-27 08:10 36.35212 -5.95522 26990 ft 404 kts
2026-04-27 08:11 36.38004 -5.95057 27404 ft 407 kts
2026-04-27 08:11 36.40778 -5.94585 27807 ft 409 kts
2026-04-27 08:11 36.43641 -5.94088 28213 ft 411 kts
2026-04-27 08:11 36.46441 -5.93595 28595 ft 413 kts
2026-04-27 08:12 36.49295 -5.93088 28974 ft 415 kts
2026-04-27 08:12 36.52166 -5.92577 29301 ft 418 kts
2026-04-27 08:12 36.55053 -5.92061 29647 ft 421 kts
2026-04-27 08:12 36.57960 -5.91541 30000 ft 422 kts
2026-04-27 08:13 36.60875 -5.91019 30344 ft 424 kts
2026-04-27 08:13 36.63800 -5.90495 30674 ft 426 kts
2026-04-27 08:13 36.66735 -5.89969 30985 ft 428 kts
2026-04-27 08:13 36.69690 -5.89440 31290 ft 429 kts
2026-04-27 08:14 36.72650 -5.88909 31593 ft 431 kts
2026-04-27 08:14 36.75626 -5.88374 31893 ft 432 kts
2026-04-27 08:14 36.78608 -5.87839 32179 ft 434 kts
2026-04-27 08:14 36.81599 -5.87301 32459 ft 435 kts
2026-04-27 08:15 36.84604 -5.86760 32714 ft 437 kts
2026-04-27 08:15 36.87621 -5.86217 32966 ft 439 kts
2026-04-27 08:15 36.90642 -5.85672 33227 ft 440 kts
2026-04-27 08:15 36.93673 -5.85127 33485 ft 441 kts
2026-04-27 08:16 36.96721 -5.84577 33738 ft 442 kts
2026-04-27 08:16 36.99768 -5.84027 33976 ft 443 kts
2026-04-27 08:16 37.05932 -5.82911 34018 ft 452 kts
2026-04-27 08:17 37.12224 -5.81771 34032 ft 460 kts
2026-04-27 08:17 37.18568 -5.80618 34018 ft 461 kts
2026-04-27 08:18 37.24907 -5.79465 34013 ft 460 kts
2026-04-27 08:18 37.31196 -5.78319 34020 ft 459 kts
2026-04-27 08:19 37.37512 -5.77167 34014 ft 458 kts
2026-04-27 08:19 37.43756 -5.75615 34010 ft 459 kts 17°
2026-04-27 08:20 37.49570 -5.72288 34019 ft 459 kts 25°
2026-04-27 08:20 37.54370 -5.69298 34016 ft 459 kts 25°
2026-04-27 08:21 37.60090 -5.65765 34022 ft 458 kts 24°
2026-04-27 08:21 37.65820 -5.62270 34034 ft 457 kts 24°
2026-04-27 08:22 37.71488 -5.58827 34026 ft 457 kts 24°
2026-04-27 08:22 37.77219 -5.55341 34034 ft 457 kts 24°
2026-04-27 08:23 37.82947 -5.51849 34045 ft 457 kts 24°
2026-04-27 08:23 37.88677 -5.48350 34034 ft 458 kts 24°
2026-04-27 08:24 37.94419 -5.44836 34046 ft 458 kts 24°
2026-04-27 08:24 38.00157 -5.41318 34046 ft 458 kts 24°
2026-04-27 08:25 38.05900 -5.37792 34047 ft 459 kts 24°
2026-04-27 08:25 38.11643 -5.34259 34047 ft 459 kts 24°
2026-04-27 08:26 38.17389 -5.30718 34047 ft 459 kts 24°
2026-04-27 08:26 38.23132 -5.27172 34034 ft 459 kts 24°
2026-04-27 08:27 38.28869 -5.23624 34048 ft 458 kts 24°
2026-04-27 08:27 38.34601 -5.20073 34046 ft 458 kts 24°
2026-04-27 08:28 38.40324 -5.16521 34047 ft 458 kts 24°
2026-04-27 08:28 38.46044 -5.12964 34040 ft 457 kts 24°
2026-04-27 08:29 38.51771 -5.09442 34046 ft 456 kts 22°
2026-04-27 08:29 38.57633 -5.06374 34060 ft 455 kts 19°
2026-04-27 08:30 38.63490 -5.03468 34055 ft 455 kts 19°
2026-04-27 08:30 38.69371 -5.00498 34058 ft 454 kts 20°
2026-04-27 08:31 38.75240 -4.97488 34056 ft 454 kts 20°
2026-04-27 08:31 38.81106 -4.94465 34055 ft 454 kts 20°
2026-04-27 08:32 38.86968 -4.91441 34062 ft 454 kts 20°
2026-04-27 08:32 38.92826 -4.88414 34065 ft 454 kts 20°
2026-04-27 08:33 38.98690 -4.85381 34072 ft 454 kts 20°
2026-04-27 08:33 39.04547 -4.82342 34086 ft 454 kts 20°
2026-04-27 08:34 39.10402 -4.79295 34089 ft 454 kts 20°
2026-04-27 08:34 39.16250 -4.76246 34106 ft 453 kts 20°
2026-04-27 08:35 39.22099 -4.73195 34107 ft 453 kts 20°
2026-04-27 08:35 39.27949 -4.70149 34108 ft 453 kts 20°
2026-04-27 08:36 39.33797 -4.67098 34113 ft 453 kts 20°
2026-04-27 08:36 39.39645 -4.64042 34122 ft 453 kts 20°
2026-04-27 08:37 39.45489 -4.60980 34121 ft 453 kts 20°
2026-04-27 08:37 39.51329 -4.57914 34119 ft 453 kts 20°
2026-04-27 08:38 39.57124 -4.54867 34126 ft 452 kts 20°
2026-04-27 08:38 39.62949 -4.51799 34132 ft 452 kts 20°
2026-04-27 08:39 39.68770 -4.48726 34129 ft 451 kts 20°
2026-04-27 08:39 39.74588 -4.45650 34140 ft 451 kts 20°
2026-04-27 08:40 39.80390 -4.42576 34140 ft 450 kts 21°
2026-04-27 08:40 39.86183 -4.39470 34145 ft 450 kts 21°
2026-04-27 08:41 39.91963 -4.36359 34151 ft 449 kts 21°
2026-04-27 08:41 39.97739 -4.33244 34145 ft 449 kts 22°
2026-04-27 08:42 40.03423 -4.29869 34151 ft 449 kts 24°
2026-04-27 08:42 40.09066 -4.26363 34147 ft 449 kts 24°
2026-04-27 08:43 40.14709 -4.22877 34149 ft 449 kts 24°
2026-04-27 08:43 40.20365 -4.19410 34155 ft 449 kts 24°
2026-04-27 08:44 40.26019 -4.15950 34157 ft 449 kts 24°
2026-04-27 08:44 40.31677 -4.12483 34156 ft 449 kts 24°
2026-04-27 08:45 40.37333 -4.09009 34158 ft 449 kts 24°
2026-04-27 08:45 40.42996 -4.05524 34164 ft 449 kts 24°
2026-04-27 08:46 40.48659 -4.02032 34164 ft 450 kts 24°
2026-04-27 08:46 40.54324 -3.98532 34168 ft 450 kts 24°
2026-04-27 08:47 40.59988 -3.95026 34179 ft 450 kts 24°
2026-04-27 08:47 40.65620 -3.91534 34174 ft 451 kts 24°
2026-04-27 08:48 40.71288 -3.88013 34183 ft 451 kts 24°
2026-04-27 08:48 40.76962 -3.84481 34182 ft 451 kts 24°
2026-04-27 08:49 40.82637 -3.80942 34187 ft 451 kts 24°
2026-04-27 08:49 40.88313 -3.77396 34184 ft 451 kts 24°
2026-04-27 08:50 40.93992 -3.73840 34181 ft 452 kts 24°
2026-04-27 08:50 40.99675 -3.70275 34173 ft 452 kts 24°
2026-04-27 08:51 41.05357 -3.66704 34175 ft 452 kts 24°
2026-04-27 08:51 41.11042 -3.63125 34174 ft 452 kts 24°
2026-04-27 08:52 41.16737 -3.59585 34175 ft 452 kts 22°
2026-04-27 08:52 41.22549 -3.56396 34176 ft 452 kts 21°
2026-04-27 08:53 41.28389 -3.53276 34172 ft 452 kts 21°
2026-04-27 08:53 41.34216 -3.50108 34165 ft 453 kts 21°
2026-04-27 08:54 41.40041 -3.46909 34165 ft 453 kts 21°
2026-04-27 08:54 41.45868 -3.43700 34165 ft 453 kts 21°
2026-04-27 08:55 41.51694 -3.40489 34166 ft 453 kts 21°
2026-04-27 08:55 41.57514 -3.37281 34165 ft 453 kts 21°
2026-04-27 08:56 41.63302 -3.34085 34167 ft 453 kts 21°
2026-04-27 08:56 41.69126 -3.30862 34167 ft 453 kts 21°
2026-04-27 08:57 41.77858 -3.26017 34166 ft 453 kts 21°
2026-04-27 08:58 41.83682 -3.22778 34166 ft 453 kts 21°
2026-04-27 08:58 41.89505 -3.19532 34159 ft 453 kts 22°
2026-04-27 08:59 41.95327 -3.16280 34156 ft 453 kts 22°
2026-04-27 08:59 42.01153 -3.13020 34155 ft 453 kts 21°
2026-04-27 09:00 42.06975 -3.09756 34156 ft 454 kts 21°
2026-04-27 09:00 42.12802 -3.06482 34159 ft 454 kts 22°
2026-04-27 09:01 42.18637 -3.03197 34156 ft 455 kts 21°
2026-04-27 09:01 42.24482 -2.99900 34167 ft 456 kts 21°
2026-04-27 09:02 42.30347 -2.96585 34170 ft 458 kts 21°
2026-04-27 09:02 42.36234 -2.93250 34169 ft 460 kts 21°
2026-04-27 09:03 42.42137 -2.89900 34174 ft 461 kts 22°
2026-04-27 09:03 42.47659 -2.85496 34165 ft 464 kts 40°
2026-04-27 09:04 42.52472 -2.79662 34166 ft 464 kts 42°
2026-04-27 09:04 42.57248 -2.73772 34177 ft 464 kts 41°
2026-04-27 09:05 42.62056 -2.67914 34169 ft 464 kts 41°
2026-04-27 09:05 42.66871 -2.62081 34174 ft 463 kts 41°
2026-04-27 09:06 42.71680 -2.56253 34176 ft 463 kts 41°
2026-04-27 09:06 42.76479 -2.50420 34170 ft 462 kts 41°
2026-04-27 09:07 42.80457 -2.45573 34176 ft 461 kts 41°
2026-04-27 09:07 42.85237 -2.39739 34172 ft 461 kts 41°
2026-04-27 09:08 42.90006 -2.33904 34179 ft 460 kts 41°
2026-04-27 09:08 42.94769 -2.28063 34170 ft 460 kts 41°
2026-04-27 09:09 42.99528 -2.22215 34185 ft 460 kts 41°
2026-04-27 09:09 43.04273 -2.16352 34185 ft 461 kts 41°
2026-04-27 09:10 43.09027 -2.10463 34188 ft 461 kts 41°
2026-04-27 09:10 43.13784 -2.04565 34185 ft 462 kts 41°
2026-04-27 09:11 43.18550 -1.98651 34181 ft 463 kts 41°
2026-04-27 09:11 43.23315 -1.92720 34185 ft 463 kts 41°
2026-04-27 09:12 43.28089 -1.86767 34182 ft 464 kts 41°
2026-04-27 09:12 43.33115 -1.81265 34178 ft 462 kts 29°
2026-04-27 09:13 43.38730 -1.77086 34181 ft 462 kts 29°
2026-04-27 09:13 43.44165 -1.72357 34187 ft 463 kts 33°
2026-04-27 09:14 43.49501 -1.67390 34180 ft 463 kts 33°
2026-04-27 09:14 43.54855 -1.62448 34186 ft 463 kts 33°
2026-04-27 09:15 43.60231 -1.57548 34184 ft 463 kts 32°
2026-04-27 09:15 43.65619 -1.52652 34185 ft 464 kts 32°
2026-04-27 09:16 43.71004 -1.47749 34185 ft 464 kts 32°
2026-04-27 09:16 43.76391 -1.42831 34184 ft 464 kts 32°
2026-04-27 09:17 43.81772 -1.37907 34184 ft 464 kts 32°
2026-04-27 09:17 43.87158 -1.32967 34185 ft 464 kts 33°
2026-04-27 09:18 43.92539 -1.28019 34184 ft 464 kts 33°
2026-04-27 09:18 43.97919 -1.23063 34184 ft 464 kts 33°
2026-04-27 09:19 44.03292 -1.18101 34182 ft 464 kts 32°
2026-04-27 09:19 44.08639 -1.13154 34183 ft 465 kts 32°
2026-04-27 09:20 44.14022 -1.08161 34187 ft 466 kts 32°
2026-04-27 09:20 44.19419 -1.03145 34187 ft 467 kts 32°
2026-04-27 09:21 44.24823 -0.98110 34186 ft 468 kts 33°
2026-04-27 09:21 44.30247 -0.93045 34183 ft 469 kts 33°
2026-04-27 09:22 44.35677 -0.87963 34187 ft 470 kts 33°
2026-04-27 09:22 44.41192 -0.83050 34174 ft 470 kts 25°
2026-04-27 09:23 44.47159 -0.79347 34178 ft 470 kts 21°
2026-04-27 09:23 44.53194 -0.75809 34175 ft 470 kts 21°
2026-04-27 09:24 44.59214 -0.72208 34174 ft 471 kts 21°
2026-04-27 09:24 44.65230 -0.68538 34168 ft 471 kts 22°
2026-04-27 09:25 44.71238 -0.64841 34165 ft 471 kts 22°
2026-04-27 09:25 44.77245 -0.61136 34159 ft 472 kts 22°
2026-04-27 09:26 44.83256 -0.57423 34155 ft 472 kts 21°
2026-04-27 09:26 44.89224 -0.53729 34158 ft 472 kts 21°
2026-04-27 09:27 44.95236 -0.50001 34159 ft 472 kts 21°
2026-04-27 09:27 45.01243 -0.46266 34159 ft 472 kts 21°
2026-04-27 09:28 45.07259 -0.42517 34163 ft 472 kts 21°
2026-04-27 09:28 45.13274 -0.38761 34166 ft 473 kts 21°
2026-04-27 09:29 45.19289 -0.34995 34164 ft 473 kts 21°
2026-04-27 09:29 45.25308 -0.31219 34169 ft 473 kts 21°
2026-04-27 09:30 45.31323 -0.27436 34178 ft 473 kts 21°
2026-04-27 09:30 45.37351 -0.23636 34174 ft 474 kts 21°
2026-04-27 09:31 45.43377 -0.19828 34181 ft 474 kts 21°
2026-04-27 09:31 45.49410 -0.16007 34185 ft 474 kts 21°
2026-04-27 09:32 45.55441 -0.12178 34185 ft 475 kts 22°
2026-04-27 09:32 45.61474 -0.08339 34184 ft 475 kts 21°
2026-04-27 09:33 45.67502 -0.04494 34188 ft 475 kts 21°
2026-04-27 09:33 45.73539 -0.00634 34182 ft 475 kts 22°
2026-04-27 09:34 45.79575 0.03235 34201 ft 474 kts 21°
2026-04-27 09:34 45.85582 0.07095 34182 ft 472 kts 21°
2026-04-27 09:35 45.91561 0.10946 34178 ft 470 kts 21°
2026-04-27 09:35 45.97507 0.14784 34180 ft 467 kts 21°
2026-04-27 09:36 46.03423 0.18611 34183 ft 465 kts 21°
2026-04-27 09:36 46.09310 0.22429 34196 ft 464 kts 21°
2026-04-27 09:37 46.15154 0.26227 34195 ft 464 kts 21°
2026-04-27 09:37 46.21073 0.30083 34197 ft 464 kts 21°
2026-04-27 09:38 46.26925 0.33905 34200 ft 465 kts 21°
2026-04-27 09:38 46.32866 0.37795 34202 ft 466 kts 21°
2026-04-27 09:39 46.38772 0.41671 34202 ft 467 kts 21°
2026-04-27 09:39 46.44695 0.45568 34205 ft 468 kts 21°
2026-04-27 09:40 46.50583 0.49451 34206 ft 468 kts 21°
2026-04-27 09:40 46.56547 0.53253 34198 ft 467 kts 15°
2026-04-27 09:41 46.62822 0.55489 34185 ft 464 kts
2026-04-27 09:41 46.69133 0.57441 34185 ft 464 kts
2026-04-27 09:42 46.75441 0.59467 34181 ft 464 kts
2026-04-27 09:42 46.81730 0.61545 34189 ft 464 kts
2026-04-27 09:43 46.88020 0.63637 34192 ft 464 kts
2026-04-27 09:43 46.94314 0.65733 34192 ft 463 kts
2026-04-27 09:44 47.00597 0.67828 34200 ft 463 kts
2026-04-27 09:44 47.06900 0.69630 34200 ft 459 kts
2026-04-27 09:45 47.13261 0.70268 34195 ft 458 kts 359°
2026-04-27 09:45 47.19622 0.70790 34216 ft 458 kts 360°
2026-04-27 09:46 47.25989 0.71410 34214 ft 458 kts
2026-04-27 09:46 47.32354 0.72079 34227 ft 459 kts
2026-04-27 09:47 47.38728 0.72754 34212 ft 460 kts
2026-04-27 09:47 47.45112 0.73426 34205 ft 460 kts
2026-04-27 09:48 47.51482 0.74641 34210 ft 467 kts 13°
2026-04-27 09:48 47.57664 0.77681 34204 ft 469 kts 16°
2026-04-27 09:49 47.63837 0.80854 34206 ft 470 kts 15°
2026-04-27 09:49 47.70033 0.83946 34205 ft 470 kts 15°
2026-04-27 09:50 47.76231 0.87001 34217 ft 470 kts 15°
2026-04-27 09:50 47.82440 0.90072 34214 ft 470 kts 15°
2026-04-27 09:51 47.88596 0.93153 34217 ft 470 kts 15°
2026-04-27 09:51 47.94781 0.96288 34220 ft 469 kts 15°
2026-04-27 09:52 48.00964 0.99429 34207 ft 469 kts 15°
2026-04-27 09:52 48.07145 1.02571 34212 ft 469 kts 15°
2026-04-27 09:53 48.13314 1.05715 34217 ft 468 kts 15°
2026-04-27 09:53 48.19479 1.08864 34226 ft 468 kts 15°
2026-04-27 09:54 48.25642 1.12011 34238 ft 467 kts 15°
2026-04-27 09:54 48.31798 1.15146 34225 ft 468 kts 15°
2026-04-27 09:55 48.36914 1.17758 34225 ft 467 kts 15°
2026-04-27 09:55 48.46144 1.22490 34243 ft 467 kts 15°
2026-04-27 09:56 48.52291 1.25651 34240 ft 467 kts 15°
2026-04-27 09:56 48.58437 1.28798 34241 ft 466 kts 15°
2026-04-27 09:57 48.64589 1.31890 34254 ft 466 kts 14°
2026-04-27 09:57 48.70743 1.34986 34251 ft 466 kts 14°
2026-04-27 09:58 48.76891 1.38098 34252 ft 466 kts 15°
2026-04-27 09:58 48.82996 1.41199 34258 ft 466 kts 15°
2026-04-27 09:59 48.89141 1.44329 34259 ft 466 kts 14°
2026-04-27 09:59 48.95285 1.47465 34258 ft 466 kts 14°
2026-04-27 10:00 49.01534 1.49775 34266 ft 460 kts
2026-04-27 10:00 49.07873 1.51097 34252 ft 460 kts
2026-04-27 10:01 49.14210 1.52496 34262 ft 460 kts
2026-04-27 10:01 49.20541 1.53987 34256 ft 460 kts
2026-04-27 10:02 49.26678 1.56966 34264 ft 471 kts 25°
2026-04-27 10:02 49.29441 1.59700 34254 ft 476 kts 36°
2026-04-27 10:02 49.31931 1.63052 34268 ft 477 kts 40°
2026-04-27 10:03 49.36785 1.69995 34257 ft 477 kts 40°
2026-04-27 10:03 49.41637 1.76948 34255 ft 477 kts 40°
2026-04-27 10:04 49.46524 1.83865 34256 ft 477 kts 40°
2026-04-27 10:04 49.51413 1.90753 34262 ft 477 kts 40°
2026-04-27 10:05 49.56302 1.97652 34265 ft 476 kts 39°
2026-04-27 10:05 49.61181 2.04560 34271 ft 476 kts 40°
2026-04-27 10:06 49.66052 2.11479 34262 ft 476 kts 40°
2026-04-27 10:06 49.70888 2.18369 34269 ft 476 kts 40°
2026-04-27 10:07 49.75778 2.25356 34265 ft 476 kts 40°
2026-04-27 10:07 49.80604 2.32272 34268 ft 476 kts 40°
2026-04-27 10:08 49.85449 2.39234 34271 ft 475 kts 40°
2026-04-27 10:08 49.90296 2.46218 34266 ft 475 kts 40°
2026-04-27 10:09 49.95132 2.53208 34266 ft 475 kts 40°
2026-04-27 10:09 49.99965 2.60213 34269 ft 475 kts 40°
2026-04-27 10:10 50.04791 2.67228 34266 ft 475 kts 40°
2026-04-27 10:10 50.09613 2.74258 34267 ft 475 kts 40°
2026-04-27 10:11 50.14429 2.81299 34268 ft 475 kts 40°
2026-04-27 10:11 50.19246 2.88362 33949 ft 479 kts 40°
2026-04-27 10:12 50.21671 2.91924 33348 ft 478 kts 40°
2026-04-27 10:12 50.24090 2.95484 32681 ft 478 kts 40°
2026-04-27 10:12 50.26510 2.99052 32043 ft 477 kts 40°
2026-04-27 10:12 50.28906 3.02591 31557 ft 472 kts 40°
2026-04-27 10:13 50.31282 3.06105 31079 ft 468 kts 40°
2026-04-27 10:13 50.33637 3.09593 30571 ft 464 kts 40°
2026-04-27 10:13 50.35941 3.13010 30084 ft 460 kts 40°
2026-04-27 10:13 50.38284 3.16487 29589 ft 456 kts 40°
2026-04-27 10:14 50.40542 3.19844 29094 ft 452 kts 40°
2026-04-27 10:14 50.42837 3.23261 28594 ft 448 kts 40°
2026-04-27 10:14 50.45060 3.26573 28111 ft 444 kts 40°
2026-04-27 10:14 50.47284 3.29891 27617 ft 440 kts 40°
2026-04-27 10:15 50.49496 3.33190 27131 ft 436 kts 39°
2026-04-27 10:15 50.51845 3.36124 26638 ft 428 kts 30°
2026-04-27 10:15 50.54415 3.38376 26154 ft 419 kts 20°
2026-04-27 10:15 50.57073 3.40185 25689 ft 415 kts 19°
2026-04-27 10:16 50.59722 3.41950 25210 ft 411 kts 19°
2026-04-27 10:16 50.62341 3.43701 24739 ft 408 kts 19°
2026-04-27 10:16 50.64941 3.45456 24269 ft 404 kts 20°
2026-04-27 10:16 50.67509 3.47209 23795 ft 401 kts 20°
2026-04-27 10:17 50.70060 3.48962 23342 ft 398 kts 20°
2026-04-27 10:17 50.72585 3.50704 22884 ft 395 kts 20°
2026-04-27 10:17 50.75094 3.52440 22425 ft 392 kts 20°
2026-04-27 10:17 50.77580 3.54162 21975 ft 389 kts 20°
2026-04-27 10:18 50.80047 3.55873 21520 ft 386 kts 20°
2026-04-27 10:18 50.82500 3.57576 21063 ft 383 kts 20°
2026-04-27 10:18 50.84932 3.59264 20620 ft 380 kts 20°
2026-04-27 10:18 50.87347 3.60945 20177 ft 378 kts 20°
2026-04-27 10:19 50.89751 3.62582 19727 ft 374 kts 17°
2026-04-27 10:19 50.92231 3.63676 19280 ft 367 kts
2026-04-27 10:19 50.94746 3.64058 18853 ft 361 kts 358°
2026-04-27 10:19 50.97243 3.64202 18415 ft 358 kts 358°
2026-04-27 10:20 50.99723 3.64321 17978 ft 355 kts 358°
2026-04-27 10:20 51.02182 3.64446 17547 ft 353 kts 358°
2026-04-27 10:20 51.04626 3.64583 17116 ft 350 kts 358°
2026-04-27 10:20 51.07047 3.64733 16689 ft 346 kts 359°
2026-04-27 10:21 51.09449 3.64882 16263 ft 345 kts 358°
2026-04-27 10:21 51.11835 3.65034 15841 ft 343 kts 359°
2026-04-27 10:21 51.14210 3.65187 15422 ft 341 kts 359°
2026-04-27 10:21 51.16575 3.65341 14996 ft 339 kts 359°
2026-04-27 10:22 51.18922 3.65494 14576 ft 337 kts 359°
2026-04-27 10:22 51.21260 3.65647 14153 ft 335 kts 359°
2026-04-27 10:22 51.23568 3.66149 13698 ft 339 kts 16°
2026-04-27 10:22 51.25660 3.67951 13195 ft 346 kts 32°
2026-04-27 10:23 51.27618 3.70190 12720 ft 346 kts 34°
2026-04-27 10:23 51.29544 3.72465 12289 ft 343 kts 34°
2026-04-27 10:23 51.31457 3.74716 11870 ft 341 kts 34°
2026-04-27 10:23 51.33341 3.76913 11460 ft 339 kts 34°
2026-04-27 10:24 51.35246 3.79118 11048 ft 337 kts 34°
2026-04-27 10:24 51.37142 3.81301 10720 ft 332 kts 34°
2026-04-27 10:24 51.38983 3.83418 10583 ft 321 kts 34°
2026-04-27 10:24 51.40769 3.85474 10443 ft 311 kts 34°
2026-04-27 10:25 51.42498 3.87468 10309 ft 302 kts 34°
2026-04-27 10:25 51.44185 3.89416 10043 ft 298 kts 34°
2026-04-27 10:25 51.45860 3.91353 9748 ft 296 kts 35°
2026-04-27 10:25 51.47521 3.93281 9448 ft 293 kts 35°
2026-04-27 10:26 51.49169 3.95191 9134 ft 291 kts 35°
2026-04-27 10:26 51.50806 3.97088 8820 ft 289 kts 35°
2026-04-27 10:26 51.52431 3.98975 8512 ft 287 kts 36°
2026-04-27 10:26 51.54043 4.00848 8200 ft 285 kts 36°
2026-04-27 10:27 51.55639 4.02706 7896 ft 283 kts 36°
2026-04-27 10:27 51.57231 4.04561 7591 ft 281 kts 36°
2026-04-27 10:27 51.58811 4.06404 7275 ft 280 kts 36°
2026-04-27 10:27 51.60384 4.08240 6966 ft 279 kts 36°
2026-04-27 10:28 51.61948 4.10069 6644 ft 278 kts 36°
2026-04-27 10:28 51.63510 4.11889 6344 ft 276 kts 36°
2026-04-27 10:28 51.65081 4.13647 6022 ft 275 kts 36°
2026-04-27 10:28 51.66613 4.15479 5727 ft 273 kts 37°
2026-04-27 10:29 51.68128 4.17279 5521 ft 267 kts 36°
2026-04-27 10:29 51.69603 4.19028 5409 ft 260 kts 38°
2026-04-27 10:29 51.71027 4.20749 5281 ft 252 kts 36°
2026-04-27 10:29 51.72419 4.22385 5191 ft 244 kts 36°
2026-04-27 10:30 51.73905 4.23539 5050 ft 237 kts